Flag for U.S.A. Weather past 2 weeks in Manassas, Virginia, U.S.A.

Now
55 °F

Sunny.


Feels Like: 55 °F
Forecast: 35 / 56 °F
Wind: 3 mph from Southeast

Location: Manassas Municipal


UV Index: 0 (Low)

Visibility: 10 mi


Pressure: 30.38 "Hg

Humidity: 47%

Dew point: 36 °F

Location of ManassasLocation

Historic Weather in Manassas

°F

Manassas temperature yesterday

Maximum temperature yesterday: 55 °F (at 2:35 PM)
Minimum temperature yesterday: 27 °F (at 5:55 AM)
Average temperature yesterday: 43 °F

Past Weeks' High & Low Weather Summary

 TemperatureHumidityPressure
High84 °F (Apr 13, 2:45 PM)100% (Apr 5, 12:55 AM)30.65 "Hg (Apr 5, 12:55 AM)
Low27 °F (Apr 17, 5:55 AM)19% (Apr 12, 12:15 PM)29.49 "Hg (Apr 8, 5:55 AM)
Average52 °F66%30.07 "Hg
* Reported Apr 3 1:50 PM — Apr 18 1:55 PM, Manassas, Weather by CustomWeather, © 2014

Note: Actual official high and low records may vary slightly from our data, if they occured in-between our weather recording intervals... More about our weather records

Advertising

Historic Weather Conditions — Data for Previous 24 hours

 ConditionsComfort  
Time TempWeatherWind HumidityBarometerVisibility
1:55 PM
Apr 18
52 °FSunny.No wind54%30.40 "Hg3 mi
1:35 PM50 °FSunny.No wind58%30.42 "Hg10 mi
1:15 PM50 °FSunny.6 mph58%30.43 "Hg10 mi
12:55 PM50 °FSunny.5 mph58%30.44 "Hg10 mi
12:35 PM48 °FSunny.No wind62%30.45 "Hg10 mi
12:15 PM46 °FSunny.3 mph66%30.46 "Hg10 mi
11:55 AM46 °FPassing clouds.No wind66%30.48 "Hg10 mi
11:35 AM45 °FPartly sunny.No wind71%30.48 "Hg10 mi
11:15 AM45 °FPartly sunny.3 mph71%30.49 "Hg10 mi
10:55 AM45 °FScattered clouds.No wind66%30.49 "Hg10 mi
10:35 AM43 °FScattered clouds.No wind76%30.49 "Hg10 mi
10:15 AM43 °FPartly sunny.3 mph71%30.50 "Hg10 mi
9:55 AM43 °FPartly sunny.No wind71%30.50 "Hg10 mi
9:35 AM41 °FPartly sunny.No wind76%30.51 "Hg10 mi
9:15 AM41 °FScattered clouds.No wind76%30.51 "Hg10 mi
8:55 AM39 °FSunny.3 mph81%30.51 "Hg10 mi
8:35 AM39 °FSunny.3 mph93%30.50 "Hg10 mi
8:15 AM39 °FSunny.No wind100%30.50 "Hg10 mi
7:55 AM36 °FSunny.No wind100%30.50 "Hg10 mi
7:35 AM34 °FSunny.No wind93%30.50 "Hg10 mi
6:55 AM32 °FClear.No wind100%30.50 "Hg9 mi
6:35 AM30 °FClear.No wind100%30.50 "Hg7 mi
6:15 AM30 °FClear.No wind100%30.51 "Hg5 mi
5:55 AM30 °FClear.No wind100%30.52 "Hg7 mi
5:35 AM30 °FClear.No wind100%30.51 "Hg10 mi
5:15 AM32 °FClear.No wind100%30.51 "Hg10 mi
4:55 AM32 °FClear.No wind100%30.50 "Hg10 mi
4:35 AM32 °FClear.No wind93%30.50 "Hg10 mi
4:15 AM32 °FPassing clouds.No wind93%30.50 "Hg10 mi
3:55 AM34 °FPassing clouds.No wind100%30.50 "Hg10 mi
3:35 AM34 °FClear.No wind100%30.51 "Hg10 mi
3:15 AM36 °FClear.No wind93%30.52 "Hg10 mi
2:55 AM36 °FClear.No wind93%30.52 "Hg10 mi
2:35 AM37 °FClear.No wind87%30.52 "Hg10 mi
2:15 AM39 °FClear.No wind81%30.53 "Hg10 mi
1:55 AM39 °FClear.No wind81%30.54 "Hg10 mi
1:35 AM39 °FClear.No wind81%30.55 "Hg10 mi
1:15 AM39 °FClear.No wind81%30.55 "Hg10 mi
12:55 AM39 °FClear.5 mph81%30.56 "Hg10 mi
12:35 AM39 °FClear.3 mph81%30.56 "Hg10 mi
12:15 AM41 °FClear.3 mph76%30.58 "Hg10 mi
11:55 PM
Apr 17
41 °FClear.3 mph76%30.59 "Hg10 mi
11:35 PM43 °FClear.6 mph71%30.59 "Hg10 mi
11:15 PM43 °FClear.6 mph71%30.59 "Hg10 mi
10:55 PM43 °FClear.6 mph71%30.58 "Hg10 mi
10:35 PM45 °FClear.7 mph66%30.57 "Hg10 mi
10:15 PM45 °FClear.10 mph66%30.56 "Hg10 mi
9:55 PM45 °FClear.8 mph66%30.56 "Hg10 mi
9:35 PM46 °FClear.8 mph62%30.56 "Hg10 mi
9:15 PM46 °FClear.9 mph62%30.55 "Hg10 mi
8:55 PM46 °FClear.9 mph62%30.54 "Hg10 mi
8:35 PM48 °FSunny.10 mph58%30.54 "Hg10 mi
8:15 PM48 °FSunny.8 mph58%30.54 "Hg10 mi
7:55 PM50 °FSunny.8 mph54%30.54 "Hg10 mi
7:35 PM52 °FSunny.12 mph47%30.54 "Hg10 mi
7:15 PM52 °FSunny.8 mph47%30.53 "Hg10 mi
6:55 PM54 °FSunny.13 mph41%30.54 "Hg10 mi
6:35 PM54 °FSunny.14 mph44%30.54 "Hg10 mi
6:15 PM55 °FSunny.9 mph41%30.54 "Hg10 mi
5:55 PM55 °FSunny.13 mph41%30.54 "Hg10 mi
5:35 PM55 °FSunny.7 mph41%30.54 "Hg10 mi
5:15 PM55 °FSunny.10 mph41%30.53 "Hg10 mi
4:55 PM55 °FSunny.13 mph41%30.53 "Hg10 mi
4:35 PM55 °FSunny.3 mph38%30.54 "Hg10 mi
4:15 PM55 °FSunny.8 mph38%30.54 "Hg10 mi
3:55 PM55 °FSunny.6 mph38%30.55 "Hg10 mi
3:35 PM55 °FSunny.12 mph38%30.56 "Hg10 mi
3:15 PM55 °FSunny.7 mph38%30.57 "Hg10 mi
Weather by CustomWeather, © 2014

See weather overview